QPF
0.00 0.00 0.00 0.00 0.00 0.00 0.00 0.00 0.00 0.00 0.00 0.00 0.00 0.00 0.00 0.00 0.00 0.00 0.01 0.02 0.07 0.05 0.02 0.00 0.00 0.00 0.00 0.00 0.00 0.00 0.00 0.00 0.00 0.00 0.00 0.00 0.00 0.00 0.00 0.00 0.00 0.00 0.00
0.00 0.00 0.00 0.00 0.00 0.00 0.00 0.00 0.00 0.00 0.00 0.00 0.00 0.00 0.00 0.00 0.00 0.00 0.00 0.01 0.03 0.06 0.05 0.02 0.00 0.01 0.00 0.00 0.00 0.00 0.00 0.00 0.00 0.00 0.00 0.00 0.00 0.00 0.00 0.00 0.00 0.00 0.00
0.00 0.00 0.00 0.00 0.00 0.00 0.00 0.00 0.00 0.00 0.01 0.01 0.01 0.01 0.01 0.01 0.00 0.00 0.00 0.00 0.00 0.00 0.01 0.04 0.02 0.05 0.02 0.00 0.00 0.00 0.00 0.00 0.00 0.00 0.00 0.00 0.00 0.00 0.00 0.00 0.00 0.00 0.00
0.00 0.00 0.00 0.00 0.00 0.00 0.00 0.00 0.00 0.01 0.01 0.00 0.00 0.01 0.01 0.02 0.02 0.00 0.00 0.00 0.00 0.00 0.00 0.00 0.01 0.03 0.06 0.00 0.00 0.00 0.00 0.00 0.00 0.00 0.00 0.00 0.00 0.00 0.00 0.00 0.00 0.00 0.00
0.00 0.00 0.00 0.00 0.00 0.00 0.00 0.00 0.01 0.01 0.01 0.00 0.00 0.00 0.00 0.01 0.04 0.04 0.00 0.00 0.00 0.00 0.01 0.00 0.01 0.01 0.02 0.01 0.00 0.00 0.00 0.00 0.00 0.00 0.00 0.00 0.00 0.00 0.00 0.00 0.00 0.00 0.00
0.00 0.00 0.00 0.00 0.00 0.00 0.00 0.00 0.01 0.01 0.00 0.00 0.00 0.00 0.00 0.01 0.04 0.07 0.03 0.01 0.00 0.00 0.01 0.01 0.01 0.01 0.00 0.00 0.02 0.00 0.00 0.00 0.00 0.00 0.00 0.00 0.00 0.00 0.00 0.00 0.00 0.00 0.01
0.00 0.00 0.00 0.00 0.00 0.00 0.00 0.00 0.01 0.01 0.00 0.00 0.01 0.01 0.00 0.01 0.03 0.06 0.03 0.03 0.01 0.00 0.01 0.01 0.00 0.01 0.01 0.03 0.02 0.00 0.00 0.00 0.00 0.00 0.00 0.00 0.00 0.00 0.00 0.00 0.00 0.01 0.02
0.00 0.00 0.00 0.00 0.00 0.00 0.01 0.01 0.01 0.00 0.00 0.00 0.00 0.00 0.00 0.02 0.03 0.04 0.03 0.02 0.01 0.00 0.00 0.01 0.00 0.02 0.03 0.02 0.02 0.01 0.00 0.00 0.00 0.00 0.00 0.00 0.00 0.00 0.00 0.00 0.00 0.02 0.04
0.00 0.00 0.00 0.00 0.00 0.00 0.02 0.01 0.01 0.00 0.00 0.01 0.01 0.01 0.00 0.03 0.03 0.02 0.00 0.00 0.01 0.01 0.00 0.00 0.00 0.01 0.02 0.01 0.00 0.00 0.00 0.00 0.00 0.00 0.00 0.00 0.00 0.00 0.00 0.01 0.01 0.05 0.05
0.00 0.00 0.00 0.00 0.00 0.00 0.00 0.01 0.01 0.00 0.00 0.00 0.01 0.01 0.01 0.01 0.01 0.01 0.00 0.00 0.01 0.02 0.00 0.01 0.01 0.01 0.01 0.00 0.00 0.00 0.00 0.00 0.00 0.00 0.00 0.03 0.00 0.00 0.00 0.00 0.01 0.04 0.02
0.00 0.00 0.00 0.00 0.00 0.00 0.00 0.00 0.01 0.00 0.00 0.00 0.01 0.03 0.04 0.02 0.01 0.01 0.01 0.01 0.04 0.02 0.00 0.03 0.02 0.00 0.00 0.00 0.00 0.00 0.00 0.00 0.00 0.00 0.00 0.01 0.00 0.00 0.01 0.01 0.00 0.01 0.02
0.00 0.00 0.00 0.00 0.00 0.00 0.00 0.00 0.00 0.01 0.00 0.00 0.01 0.03 0.05 0.06 0.04 0.02 0.01 0.01 0.01 0.00 0.01 0.03 0.01 0.00 0.00 0.00 0.00 0.00 0.00 0.00 0.00 0.00 0.00 0.00 0.00 0.01 0.03 0.00 0.00 0.02 0.04
0.00 0.00 0.00 0.00 0.00 0.00 0.00 0.00 0.00 0.00 0.00 0.01 0.02 0.03 0.04 0.05 0.06 0.03 0.02 0.01 0.01 0.00 0.00 0.00 0.00 0.00 0.00 0.00 0.00 0.00 0.00 0.00 0.00 0.00 0.00 0.00 0.01 0.02 0.02 0.00 0.01 0.01 0.03
0.00 0.00 0.00 0.00 0.00 0.00 0.00 0.00 0.00 0.00 0.00 0.01 0.02 0.05 0.04 0.04 0.05 0.03 0.01 0.00 0.00 0.00 0.02 0.03 0.02 0.00 0.00 0.00 0.00 0.00 0.00 0.00 0.00 0.00 0.00 0.01 0.03 0.02 0.01 0.01 0.03 0.02 0.02
0.00 0.00 0.00 0.00 0.00 0.00 0.00 0.00 0.00 0.00 0.00 0.00 0.01 0.04 0.06 0.08 0.05 0.01 0.00 0.00 0.02 0.07 0.07 0.02 0.00 0.00 0.00 0.00 0.00 0.00 0.00 0.00 0.00 0.00 0.00 0.01 0.02 0.02 0.02 0.02 0.04 0.02 0.06
0.00 0.00 0.00 0.00 0.00 0.00 0.00 0.00 0.00 0.00 0.00 0.00 0.00 0.00 0.01 0.02 0.00 0.00 0.00 0.01 0.01 0.01 0.00 0.00 0.00 0.00 0.00 0.00 0.00 0.00 0.00 0.00 0.00 0.01 0.00 0.02 0.02 0.01 0.02 0.04 0.06 0.06 0.19
0.02 0.04 0.04 0.01 0.00 0.00 0.00 0.00 0.00 0.00 0.00 0.01 0.02 0.01 0.01 0.02 0.01 0.01 0.01 0.00 0.00 0.00 0.00 0.00 0.00 0.00 0.00 0.00 0.00 0.00 0.00 0.01 0.01 0.01 0.01 0.01 0.02 0.03 0.04 0.07 0.06 0.12 0.16
0.04 0.08 0.09 0.09 0.04 0.00 0.00 0.00 0.00 0.00 0.00 0.00 0.02 0.04 0.05 0.04 0.02 0.01 0.00 0.00 0.00 0.00 0.00 0.00 0.01 0.00 0.00 0.00 0.00 0.00 0.01 0.02 0.02 0.02 0.01 0.01 0.02 0.03 0.03 0.05 0.08 0.10 0.06
0.00 0.04 0.07 0.10 0.12 0.07 0.01 0.00 0.00 0.00 0.00 0.00 0.00 0.00 0.03 0.04 0.02 0.02 0.01 0.00 0.00 0.00 0.00 0.00 0.00 0.00 0.00 0.00 0.00 0.01 0.02 0.02 0.03 0.04 0.02 0.02 0.01 0.03 0.07 0.09 0.07 0.06 0.04
0.00 0.00 0.03 0.04 0.08 0.10 0.07 0.02 0.00 0.00 0.00 0.00 0.00 0.00 0.00 0.00 0.00 0.00 0.00 0.00 0.00 0.00 0.00 0.00 0.00 0.00 0.00 0.01 0.02 0.03 0.02 0.03 0.06 0.04 0.02 0.03 0.08 0.13 0.13 0.08 0.03 0.01 0.03
0.00 0.00 0.00 0.00 0.01 0.04 0.06 0.05 0.02 0.00 0.00 0.00 0.00 0.00 0.00 0.00 0.00 0.00 0.00 0.00 0.00 0.00 0.00 0.00 0.00 0.00 0.01 0.02 0.02 0.02 0.03 0.05 0.04 0.02 0.02 0.09 0.13 0.11 0.09 0.02 0.00 0.01 0.01
0.00 0.00 0.00 0.00 0.00 0.01 0.03 0.05 0.05 0.03 0.01 0.00 0.00 0.00 0.00 0.00 0.00 0.00 0.00 0.00 0.00 0.00 0.00 0.00 0.00 0.00 0.00 0.01 0.01 0.01 0.03 0.02 0.01 0.01 0.03 0.05 0.03 0.02 0.01 0.01 0.01 0.01 0.02
0.00 0.00 0.00 0.00 0.00 0.00 0.01 0.03 0.05 0.03 0.03 0.02 0.02 0.01 0.01 0.00 0.00 0.00 0.00 0.00 0.00 0.00 0.00 0.00 0.00 0.00 0.01 0.01 0.01 0.03 0.02 0.00 0.01 0.00 0.00 0.00 0.00 0.00 0.00 0.00 0.00 0.01 0.02
0.00 0.00 0.00 0.00 0.00 0.00 0.00 0.00 0.01 0.03 0.05 0.06 0.05 0.04 0.02 0.01 0.00 0.00 0.00 0.00 0.00 0.00 0.00 0.00 0.00 0.00 0.01 0.01 0.02 0.02 0.00 0.00 0.00 0.00 0.00 0.00 0.00 0.00 0.00 0.00 0.00 0.00 0.01
0.00 0.00 0.00 0.00 0.00 0.00 0.00 0.00 0.00 0.00 0.00 0.01 0.01 0.01 0.02 0.03 0.02 0.01 0.00 0.00 0.00 0.00 0.00 0.00 0.00 0.00 0.00 0.00 0.00 0.00 0.00 0.02 0.01 0.00 0.00 0.00 0.00 0.00 0.00 0.00 0.00 0.00 0.00
0.00 0.00 0.00 0.00 0.00 0.00 0.00 0.00 0.00 0.00 0.00 0.00 0.00 0.00 0.00 0.00 0.02 0.02 0.02 0.01 0.00 0.00 0.00 0.00 0.00 0.00 0.00 0.00 0.00 0.00 0.00 0.00 0.00 0.00 0.00 0.00 0.00 0.00 0.00 0.00 0.00 0.00 0.00
MSLP
1018.73 1018.49 1018.44 1018.36 1018.35 1018.23 1017.95 1017.59 1017.30 1017.05 1016.84 1016.71 1016.63 1016.56 1016.55 1016.60 1016.84 1017.08 1017.10 1017.04 1017.24 1017.47 1017.47 1017.50 1017.96 1018.41 1019.29 1019.77 1020.23 1020.86 1021.61 1021.92 1022.45 1021.79 1021.11 1020.19 1020.15 1020.26 1020.54 1020.74 1020.76 1020.95 1021.12
1018.41 1018.52 1018.39 1018.37 1018.14 1017.82 1017.49 1017.14 1016.89 1016.61 1016.30 1016.03 1015.77 1015.63 1015.70 1015.84 1016.10 1016.42 1016.60 1016.68 1016.88 1017.35 1017.57 1017.67 1017.91 1018.24 1019.11 1019.80 1020.20 1020.75 1021.34 1021.63 1022.17 1022.12 1021.26 1020.40 1020.28 1020.22 1020.24 1020.69 1020.51 1020.47 1020.71
1018.64 1018.65 1018.58 1018.40 1017.95 1017.59 1017.22 1016.80 1016.41 1016.06 1015.73 1015.47 1015.22 1015.02 1014.85 1014.84 1015.18 1015.56 1015.97 1016.33 1016.64 1017.02 1017.39 1017.76 1018.37 1018.27 1019.20 1019.84 1020.22 1020.67 1021.14 1021.50 1021.98 1022.09 1021.67 1020.74 1020.29 1020.32 1020.41 1020.49 1020.47 1020.40 1020.39
1018.98 1018.80 1018.64 1018.25 1017.84 1017.44 1017.00 1016.54 1016.07 1015.58 1015.37 1015.08 1014.68 1014.32 1014.30 1014.23 1014.19 1014.71 1015.30 1015.80 1016.25 1016.67 1017.12 1017.64 1018.31 1018.66 1019.21 1019.73 1020.10 1020.47 1021.09 1021.67 1021.92 1021.93 1021.65 1021.05 1020.61 1020.31 1020.44 1020.60 1020.63 1020.43 1020.65
1019.12 1018.83 1018.60 1018.25 1017.81 1017.39 1016.94 1016.38 1015.85 1015.55 1015.26 1014.80 1014.38 1014.00 1013.65 1013.51 1013.68 1013.86 1014.59 1015.22 1015.83 1016.41 1016.78 1017.45 1018.01 1018.39 1019.29 1019.65 1019.95 1020.43 1021.04 1021.63 1021.82 1021.83 1021.76 1021.15 1020.59 1020.51 1020.69 1020.65 1020.68 1020.67 1020.61
1019.18 1018.97 1018.72 1018.38 1017.87 1017.36 1016.84 1016.24 1015.82 1015.52 1015.10 1014.74 1014.11 1013.68 1013.28 1012.99 1013.04 1013.51 1014.07 1014.80 1015.44 1016.17 1016.61 1017.09 1017.62 1018.27 1018.94 1019.72 1020.10 1020.23 1020.78 1021.35 1021.61 1021.82 1021.65 1021.29 1020.78 1020.69 1020.64 1020.70 1020.67 1020.75 1020.77
1019.38 1019.21 1018.90 1018.40 1017.93 1017.38 1016.85 1016.36 1016.09 1015.76 1015.36 1014.93 1014.45 1013.86 1013.44 1012.98 1012.90 1013.42 1014.06 1014.69 1015.37 1015.96 1016.51 1017.05 1017.58 1018.06 1018.77 1019.52 1020.26 1020.35 1020.81 1021.01 1021.33 1021.64 1021.52 1021.24 1020.96 1020.80 1020.45 1020.54 1020.70 1020.58 1020.71
1019.68 1019.39 1018.90 1018.48 1018.00 1017.60 1017.02 1016.80 1016.36 1016.05 1015.60 1015.27 1014.87 1014.38 1013.98 1013.76 1013.69 1013.95 1014.36 1014.78 1015.41 1015.98 1016.56 1016.92 1017.45 1018.01 1018.55 1019.24 1020.21 1020.65 1020.73 1020.90 1021.07 1021.16 1021.08 1020.83 1020.69 1020.48 1020.12 1019.86 1020.19 1020.84 1021.07
1019.99 1019.60 1019.15 1018.77 1018.36 1017.89 1017.41 1017.11 1016.72 1016.38 1016.03 1015.63 1015.22 1015.01 1014.69 1014.43 1014.35 1014.44 1014.70 1015.11 1015.59 1016.19 1016.69 1017.22 1017.57 1018.01 1018.59 1019.30 1019.94 1020.35 1020.63 1020.83 1020.68 1020.65 1020.53 1020.51 1020.47 1020.21 1019.84 1019.66 1020.19 1020.57 1021.57
1020.37 1019.93 1019.53 1019.11 1018.71 1018.22 1017.75 1017.36 1017.02 1016.66 1016.44 1016.08 1015.58 1015.31 1015.16 1015.02 1014.94 1015.09 1015.36 1015.69 1015.96 1016.54 1017.03 1017.45 1017.85 1018.09 1018.68 1019.26 1019.80 1020.18 1020.63 1020.86 1020.69 1020.50 1020.41 1020.22 1020.04 1020.06 1019.54 1019.54 1020.01 1020.38 1021.34
1020.84 1020.25 1019.82 1019.39 1019.03 1018.68 1018.17 1017.74 1017.38 1017.01 1016.81 1016.57 1016.09 1015.74 1015.64 1015.58 1015.60 1015.68 1015.89 1016.08 1016.19 1016.77 1017.24 1017.44 1017.97 1018.39 1019.07 1019.58 1019.87 1020.14 1020.53 1020.68 1020.79 1020.84 1020.83 1020.67 1020.52 1020.02 1020.02 1019.85 1019.87 1020.38 1021.07
1021.09 1020.61 1020.22 1019.90 1019.46 1019.04 1018.61 1018.27 1017.82 1017.42 1017.30 1017.21 1016.81 1016.47 1016.46 1016.26 1016.19 1016.30 1016.55 1016.48 1016.76 1016.99 1017.54 1017.68 1018.16 1018.82 1019.31 1019.61 1019.99 1020.31 1020.56 1020.83 1021.10 1021.25 1021.17 1021.37 1021.15 1020.88 1020.85 1020.83 1021.01 1021.11 1021.24
1021.36 1021.01 1020.71 1020.43 1020.01 1019.55 1019.25 1018.90 1018.46 1018.14 1017.90 1017.84 1017.57 1017.30 1017.18 1017.11 1017.06 1016.95 1017.26 1017.36 1017.62 1017.76 1017.93 1018.39 1018.79 1019.21 1019.52 1019.87 1020.28 1020.62 1020.94 1021.26 1021.49 1021.64 1021.69 1021.76 1021.57 1021.43 1021.22 1021.09 1021.63 1021.92 1022.52
1021.65 1021.49 1021.28 1021.01 1020.66 1020.41 1019.88 1019.53 1019.17 1018.92 1018.58 1018.48 1018.25 1017.93 1017.93 1017.89 1017.93 1017.95 1018.10 1018.18 1018.24 1018.52 1018.94 1019.18 1019.36 1019.65 1020.04 1020.39 1020.83 1021.04 1021.48 1021.56 1021.54 1021.91 1022.25 1021.81 1021.64 1021.81 1021.51 1021.70 1022.33 1022.88 1023.85
1021.89 1022.00 1021.77 1021.50 1021.23 1020.99 1020.83 1020.49 1020.02 1019.75 1019.40 1019.17 1018.97 1018.67 1018.36 1018.54 1018.64 1018.47 1018.52 1018.69 1019.01 1019.32 1019.55 1019.83 1020.10 1020.46 1020.74 1021.22 1021.49 1021.65 1021.62 1021.59 1021.73 1021.97 1022.04 1022.15 1022.18 1022.06 1022.15 1022.24 1022.53 1023.04 1024.18
1022.03 1022.17 1022.20 1022.00 1021.79 1021.61 1021.46 1021.24 1020.91 1020.40 1019.98 1019.71 1019.37 1019.28 1019.22 1018.98 1019.02 1019.03 1019.13 1019.34 1019.48 1019.52 1019.72 1020.12 1020.58 1021.02 1021.34 1021.59 1021.85 1021.92 1021.85 1021.93 1021.98 1022.08 1022.20 1022.21 1022.57 1022.68 1022.73 1022.92 1023.17 1023.70 1024.64
1022.65 1022.53 1022.53 1022.47 1022.37 1022.24 1022.03 1021.84 1021.57 1021.20 1020.79 1020.54 1020.23 1019.85 1019.82 1020.02 1020.01 1020.01 1019.79 1019.63 1019.66 1019.73 1020.13 1020.73 1021.11 1021.40 1021.49 1021.69 1021.88 1021.95 1022.06 1022.00 1022.03 1022.28 1022.36 1022.53 1022.78 1023.03 1023.17 1023.65 1024.02 1024.43 1025.37
1023.00 1022.92 1022.89 1023.01 1022.90 1022.76 1022.61 1022.45 1022.24 1022.05 1021.67 1021.29 1020.95 1020.75 1020.42 1020.28 1020.28 1020.27 1020.17 1020.04 1020.51 1020.68 1020.82 1021.07 1021.26 1021.32 1021.44 1021.69 1021.88 1022.06 1022.21 1022.23 1022.36 1022.40 1022.74 1022.79 1022.93 1023.32 1023.65 1024.10 1024.57 1024.88 1025.45
1023.41 1023.36 1023.24 1023.21 1023.35 1023.16 1023.11 1023.05 1022.81 1022.61 1022.47 1022.21 1021.68 1021.35 1021.12 1020.93 1020.83 1020.92 1020.95 1021.01 1021.15 1021.22 1021.30 1021.33 1021.44 1021.67 1021.86 1021.96 1022.05 1022.19 1022.27 1022.46 1022.56 1022.59 1022.80 1023.12 1023.23 1023.37 1024.11 1024.58 1024.84 1025.34 1025.94
1023.92 1023.87 1023.78 1023.60 1023.49 1023.56 1023.51 1023.50 1023.47 1023.38 1023.20 1022.95 1022.76 1022.53 1022.08 1021.62 1021.82 1021.89 1021.78 1021.80 1021.87 1022.02 1022.03 1021.96 1021.93 1021.96 1022.00 1022.13 1022.22 1022.52 1022.65 1022.57 1022.85 1023.04 1023.20 1023.32 1023.60 1023.83 1024.13 1024.66 1025.17 1025.75 1026.48
1024.03 1024.12 1024.09 1024.05 1023.99 1023.87 1023.93 1023.97 1023.97 1023.87 1023.78 1023.64 1023.56 1023.33 1022.89 1022.69 1022.81 1022.78 1022.74 1022.64 1022.56 1022.46 1022.36 1022.29 1022.30 1022.39 1022.42 1022.34 1022.30 1022.57 1022.78 1022.78 1023.09 1023.09 1023.40 1023.74 1024.08 1024.42 1024.62 1025.17 1025.70 1026.34 1026.94
1024.44 1024.31 1024.23 1024.27 1024.30 1024.26 1024.30 1024.30 1024.26 1024.16 1024.17 1024.11 1024.07 1023.94 1023.75 1023.57 1023.48 1023.44 1023.44 1023.30 1023.22 1023.13 1023.03 1022.81 1022.73 1022.54 1022.50 1022.51 1022.64 1022.78 1022.75 1023.04 1023.23 1023.44 1023.66 1023.99 1024.40 1024.79 1025.26 1025.80 1026.38 1026.94 1027.51
1024.81 1024.84 1024.78 1024.73 1024.67 1024.62 1024.66 1024.54 1024.53 1024.55 1024.54 1024.54 1024.48 1024.40 1024.33 1024.21 1024.13 1024.04 1023.97 1023.83 1023.61 1023.39 1023.25 1023.15 1023.12 1023.08 1022.93 1022.91 1022.97 1022.96 1023.19 1023.38 1023.54 1023.54 1023.86 1024.33 1024.72 1025.24 1025.65 1026.15 1026.63 1027.28 1027.89
1025.17 1025.15 1025.28 1025.36 1025.33 1025.37 1025.38 1025.37 1025.32 1025.11 1024.99 1024.97 1024.86 1024.82 1024.77 1024.68 1024.60 1024.48 1024.35 1024.23 1024.10 1024.03 1023.92 1023.75 1023.60 1023.32 1023.19 1023.24 1023.19 1023.26 1023.31 1023.48 1023.65 1023.92 1024.15 1024.47 1024.95 1025.50 1026.05 1026.54 1027.09 1027.68 1028.19
1025.56 1025.55 1025.62 1025.77 1026.03 1026.16 1026.05 1025.82 1025.83 1025.81 1025.83 1025.67 1025.39 1025.27 1025.17 1025.06 1025.00 1024.88 1024.71 1024.56 1024.50 1024.36 1024.25 1024.20 1024.15 1024.05 1023.88 1023.72 1023.60 1023.58 1023.67 1023.68 1023.90 1024.14 1024.53 1024.89 1025.39 1025.90 1026.36 1026.84 1027.36 1027.94 1028.43
1025.95 1025.91 1025.98 1026.06 1026.26 1026.40 1026.55 1026.47 1026.39 1026.34 1026.32 1026.23 1026.15 1025.88 1025.73 1025.61 1025.42 1025.26 1025.06 1024.84 1024.74 1024.66 1024.61 1024.54 1024.45 1024.34 1024.29 1024.27 1024.21 1024.12 1024.15 1024.22 1024.43 1024.63 1024.92 1025.32 1025.75 1026.40 1026.77 1027.19 1027.69 1028.28 1028.91
Thickness
5448 5441 5430 5418 5407 5397 5389 5381 5375 5369 5364 5359 5355 5352 5349 5347 5345 5345 5347 5351 5357 5364 5373 5383 5391 5400 5406 5412 5417 5420 5422 5427 5426 5439 5451 5469 5480 5490 5499 5507 5518 5526 5535
5444 5432 5420 5406 5395 5387 5378 5370 5363 5357 5353 5349 5347 5344 5341 5339 5338 5337 5338 5341 5345 5349 5357 5366 5376 5386 5395 5400 5408 5414 5417 5423 5425 5431 5445 5462 5474 5485 5496 5503 5513 5524 5535
5436 5422 5408 5395 5386 5375 5367 5359 5352 5346 5341 5336 5334 5333 5333 5333 5331 5330 5331 5333 5336 5339 5344 5352 5359 5373 5382 5390 5399 5407 5412 5419 5423 5428 5438 5455 5469 5480 5490 5501 5512 5523 5534
5426 5412 5397 5386 5376 5365 5356 5347 5339 5334 5328 5324 5323 5323 5322 5323 5325 5324 5324 5325 5327 5331 5336 5341 5348 5358 5370 5381 5392 5401 5407 5413 5421 5427 5435 5448 5464 5477 5487 5498 5508 5518 5527
5418 5405 5391 5378 5366 5354 5343 5334 5327 5320 5315 5312 5311 5311 5312 5314 5315 5318 5317 5319 5322 5325 5331 5334 5340 5351 5359 5372 5385 5394 5403 5410 5419 5425 5431 5446 5464 5475 5484 5494 5504 5514 5525
5414 5399 5383 5368 5356 5343 5332 5323 5314 5305 5299 5295 5296 5297 5299 5302 5306 5307 5307 5309 5313 5317 5323 5330 5335 5343 5353 5363 5378 5391 5402 5410 5418 5421 5429 5445 5460 5470 5481 5492 5504 5512 5523
5409 5392 5376 5362 5347 5335 5322 5310 5297 5287 5280 5276 5274 5276 5280 5285 5290 5292 5294 5297 5301 5308 5315 5323 5330 5338 5348 5360 5371 5386 5399 5411 5416 5422 5431 5445 5458 5469 5481 5491 5501 5515 5524
5406 5389 5374 5358 5343 5330 5319 5304 5291 5279 5272 5266 5263 5263 5265 5268 5273 5276 5279 5283 5288 5297 5306 5317 5327 5335 5346 5359 5369 5383 5399 5409 5416 5426 5434 5448 5461 5473 5487 5498 5506 5512 5521
5405 5389 5374 5358 5346 5335 5323 5308 5296 5285 5277 5271 5266 5261 5259 5263 5267 5272 5275 5278 5280 5285 5298 5311 5323 5333 5344 5358 5373 5388 5399 5408 5419 5429 5439 5453 5465 5479 5491 5502 5509 5518 5520
5407 5390 5374 5361 5352 5340 5327 5314 5302 5291 5282 5275 5271 5268 5265 5266 5269 5272 5275 5277 5282 5286 5296 5309 5320 5332 5346 5362 5378 5391 5399 5410 5422 5432 5442 5456 5469 5482 5496 5505 5513 5522 5525
5406 5393 5378 5367 5357 5345 5334 5322 5309 5298 5287 5278 5273 5269 5266 5266 5267 5270 5274 5278 5285 5290 5299 5313 5322 5333 5348 5365 5381 5394 5404 5415 5425 5433 5446 5459 5470 5486 5495 5506 5516 5523 5528
5412 5399 5384 5373 5362 5352 5342 5330 5319 5308 5294 5283 5274 5268 5261 5262 5266 5271 5274 5282 5288 5297 5306 5318 5329 5342 5358 5374 5387 5399 5410 5420 5429 5436 5449 5458 5469 5482 5493 5502 5512 5522 5530
5418 5407 5393 5379 5369 5359 5349 5338 5328 5316 5303 5290 5280 5272 5265 5262 5264 5273 5278 5285 5292 5302 5310 5321 5336 5351 5366 5381 5393 5405 5416 5424 5430 5439 5451 5461 5471 5483 5494 5505 5510 5518 5524
5427 5414 5401 5388 5376 5365 5358 5348 5338 5326 5315 5303 5292 5285 5277 5271 5272 5278 5286 5294 5303 5311 5321 5333 5348 5363 5376 5389 5400 5411 5419 5427 5436 5444 5453 5465 5477 5485 5496 5505 5509 5514 5515
5437 5424 5411 5400 5388 5377 5367 5358 5350 5339 5328 5319 5308 5301 5297 5293 5290 5295 5301 5309 5317 5326 5338 5351 5364 5377 5388 5396 5406 5415 5424 5435 5443 5451 5460 5469 5478 5487 5496 5504 5511 5516 5516
5446 5435 5423 5412 5401 5390 5380 5371 5363 5356 5349 5342 5334 5326 5320 5319 5319 5323 5328 5333 5340 5350 5363 5374 5382 5390 5398 5407 5416 5424 5432 5441 5450 5459 5467 5475 5482 5490 5498 5505 5511 5515 5515
5452 5443 5434 5425 5414 5404 5394 5386 5379 5374 5368 5363 5358 5355 5350 5344 5344 5347 5353 5359 5366 5375 5384 5389 5396 5403 5411 5419 5426 5433 5440 5449 5458 5465 5473 5481 5487 5493 5501 5504 5509 5513 5514
5461 5452 5444 5434 5427 5418 5409 5402 5394 5388 5385 5383 5380 5377 5376 5375 5374 5376 5379 5386 5389 5394 5400 5407 5413 5420 5426 5431 5436 5443 5450 5458 5465 5473 5479 5487 5493 5498 5503 5507 5511 5515 5518
5469 5461 5455 5447 5439 5432 5423 5416 5411 5406 5401 5398 5398 5398 5397 5396 5398 5399 5401 5405 5408 5412 5416 5421 5426 5430 5435 5442 5448 5454 5460 5466 5473 5481 5487 5492 5497 5505 5504 5508 5512 5516 5520
5475 5468 5462 5457 5451 5445 5438 5431 5425 5421 5418 5414 5411 5410 5412 5415 5413 5413 5415 5417 5421 5423 5426 5432 5436 5443 5449 5454 5459 5463 5469 5476 5481 5487 5491 5497 5502 5510 5513 5516 5519 5521 5520
5484 5477 5471 5466 5460 5455 5450 5445 5439 5434 5431 5429 5427 5427 5427 5427 5426 5426 5428 5430 5433 5437 5441 5446 5451 5455 5460 5465 5471 5475 5479 5485 5489 5494 5501 5505 5507 5511 5515 5516 5518 5519 5519
5489 5485 5481 5476 5470 5464 5459 5456 5452 5449 5445 5442 5440 5440 5440 5441 5441 5442 5442 5444 5447 5450 5454 5458 5462 5467 5471 5476 5479 5484 5490 5494 5499 5503 5505 5508 5511 5513 5514 5516 5516 5517 5517
5494 5489 5486 5482 5479 5474 5468 5465 5464 5461 5457 5455 5453 5451 5450 5451 5451 5452 5454 5456 5459 5463 5466 5470 5473 5477 5482 5486 5489 5494 5497 5500 5504 5508 5511 5514 5516 5516 5517 5518 5517 5516 5515
5497 5494 5489 5486 5482 5478 5476 5472 5468 5467 5467 5465 5464 5462 5460 5460 5461 5462 5464 5466 5468 5471 5474 5478 5482 5487 5491 5495 5499 5503 5507 5509 5511 5513 5515 5517 5518 5518 5517 5517 5515 5513 5512
5498 5495 5492 5489 5484 5481 5479 5478 5475 5473 5470 5469 5470 5470 5470 5470 5470 5471 5473 5475 5477 5480 5482 5485 5488 5492 5496 5500 5504 5508 5511 5514 5516 5517 5518 5519 5518 5516 5516 5514 5512 5510 5508
5497 5496 5493 5490 5487 5483 5481 5480 5478 5476 5474 5473 5472 5472 5474 5476 5478 5479 5481 5483 5485 5486 5489 5491 5494 5497 5500 5503 5506 5509 5511 5513 5514 5515 5515 5514 5513 5511 5511 5510 5507 5504 5500